Regional Weather Roundup
Issued by NWS

Home | Current Version | Previous Version | Text Only | Print | Product List | Glossary On
Versions: 1 2 3 4 5 6 7 8 9 10 11 12 13 14 15 16 17 18 19 20 21 22 23 24 25 26 27 28 29 30 31 32 33 34 35 36 37 38 39 40 41 42 43 44 45 46 47 48 49 50
000
ASUS43 KMPX 121710
RWRMN
WEATHER ROUNDUP FOR MINNESOTA
NATIONAL WEATHER SERVICE TWIN CITIES/CHANHASSEN MN
1100 AM CST FRI FEB 12 2016


NOTE: "FAIR" INDICATES FEW OR NO CLOUDS BELOW 12,000 FEET WITH NO
SIGNIFICANT WEATHER AND/OR OBSTRUCTIONS TO VISIBILITY. N/A MEANS
CURRENT SKY AND/OR WEATHER CONDITIONS ARE NOT AVAILABLE.

MNZ060>063-068>070-121800-
   Twin Cities Metro

CITY           SKY/WX    TMP DP  RH WIND       PRES   REMARKS
TWIN CITIES    SUNNY      8  -5  55 NW23G31   30.41R WCI -13
ST PAUL        SUNNY      9  -5  53 NW22      30.42R WCI -11
CRYSTAL        SUNNY      8  -5  55 N17G23    30.41R WCI -10
BLAINE         SUNNY     10  -2  56 NW21G29   30.39R WCI  -9
LAKEVILLE      SUNNY      9  -2  61 NW21G28   30.39R WCI -11
EDEN PRAIRIE   SUNNY      8  -6  52 NW18G28   30.40R WCI -11
SOUTH ST PAUL  SUNNY     10  -4  54 NW18G26   30.40R WCI  -9
LAKE ELMO      FAIR      10  -6  48 N15G26    30.39R WCI  -6
$$
MNZ001>005-007-008-013>017-022>024-027-028-121800-
   Northwest Minnesota

CITY           SKY/WX    TMP DP  RH WIND       PRES   REMARKS
BEMIDJI        SUNNY     -6 -17  60 N16       30.47R WCI -28
HALLOCK        SUNNY     -8 -17  65 N20       30.63S WCI -32
ROSEAU         SUNNY     -9 -17  70 NW12      30.56S WCI -29
WARROAD        SUNNY     -9 -18  64 W10G16    30.54R WCI -28
THIEF RVR FALL SUNNY     -6 -20  49 N14       30.58R WCI -26
CROOKSTON      MOSUNNY   -6 -11  77 N17       30.64R WCI -28
FOSSTON        SUNNY     -4 -17  54 N14       30.54R WCI -24
DETROIT LAKES  SUNNY     -2  -9  71 N15       30.53R WCI -22
MOORHEAD       MOSUNNY   -2  -9  71 N18       30.62R WCI -24
PARK RAPIDS    SUNNY     -1 -15  51 N15G22    30.46R WCI -21
MAHNOMEN       FAIR      -5 -14  65 N12       30.55R WCI -24
$$
MNZ006-009>011-018-025>026-121800-
   North Central Minnesota

CITY           SKY/WX    TMP DP  RH WIND       PRES   REMARKS
BAUDETTE       MOSUNNY  -11 -21  61 NW16      30.49R WCI -34
FLAG ISLAND    MOSUNNY  -11 -20  64 NW21      30.50R WCI -37
INTL FALLS     SUNNY     -8 -20  55 NW13      30.44R WCI -28
WASKISH        SUNNY     -8 -18  59 NW12G20   30.49R WCI -27
LONGVILLE      SUNNY     -2 -17  50 NW9G24    30.45R WCI -18
GRAND RAPIDS   SUNNY     -6 -15  65 NW20      30.39R WCI -29
CRANE LAKE     MOSUNNY   -9 -20  59 NW10G16   30.42R WCI -28
ORR            SUNNY     -8 -22  49 NW8       30.36R WCI -23
COOK           SUNNY     -6 -18  54 NW10G17   30.38R WCI -23
WALKER         FAIR      -4 -17  53 N16       30.46R WCI -25
$$
MNZ012-019>021-037-121800-
   Northeast Minnesota

CITY           SKY/WX    TMP DP  RH WIND       PRES   REMARKS
DULUTH         MOSUNNY   -3 -16  53 NW20G26   30.31R WCI -26
ELY            MOSUNNY   -8 -18  59 NW10G18   30.32R WCI -26
HIBBING        SUNNY     -7 -17  62 NW20      30.36S WCI -31
EVELETH        SUNNY     -6 -18  54 NW15G24   30.36R WCI -27
DULUTH HARBOR  SUNNY      1 -15  46 NW16G26   30.42R WCI -18
TWO HARBORS    SUNNY      1 -15  46 NW13G21   30.31R WCI -16
SILVER BAY     SUNNY      0 -17  46 NW12G20   30.30R WCI -18
GRAND MARAIS     N/A     -3 -22  39 N12G25    30.34R WCI -21
G MARAIS ARPRT SUNNY    -11 -26  49 NW10G24   30.15R WCI -30
$$
MNZ029>031-032-039>041-046>048-054>057-064-121800-
   West Central Minnesota

CITY           SKY/WX    TMP DP  RH WIND       PRES   REMARKS
FERGUS FALLS   PTSUNNY    0  -9  65 N18G28    30.59R WCI -22
WHEATON        CLOUDY     3  -2  78 NW18G24   30.61R WCI -17
MORRIS         MOSUNNY    3  -6  66 N24       30.53R WCI -20
ALEXANDRIA     SUNNY      0 -11  59 N20       30.47R WCI -22
ELBOW LAKE     FAIR      -1  -8  71 NW16G22   30.54R WCI -21
WADENA         SUNNY      0 -11  60 N14G20    30.47R WCI -19
GLENWOOD       SUNNY      1  -8  66 NW18      30.47R WCI -19
APPLETON       MOSUNNY    3  -4  72 N22G28    30.56R HAZE    WCI -19
BENSON         SUNNY      5  -6  61 N15G21    30.52R WCI -13
ORTONVILLE     PTSUNNY    3  -6  66 N20       30.57R WCI -18
MADISON        PTSUNNY    7  -2  66 N22       30.56R WCI -14
WILLMAR        FAIR       9  -2  61 NW23G29   30.49R WCI -12
$$
MNZ033>034-036-042>043-049>051-058-059-121800-
   Central Minnesota

CITY           SKY/WX    TMP DP  RH WIND       PRES   REMARKS
ST CLOUD       SUNNY      3  -8  60 N16G24    30.45R WCI -16
SAUK CENTRE    FAIR       1  -9  63 NW18      30.47R WCI -20
PAYNESVILLE    MOSUNNY    4  -6  62 NW15G22   30.47R WCI -14
AITKIN         SUNNY      1 -17  42 NW13G21   30.40R WCI -16
PINE RIVER     SUNNY      0 -13  55 NW13G21   30.47R WCI -18
BRAINERD       SUNNY      0 -13  54 N21G26    30.44R WCI -22
STAPLES        SUNNY      0 -13  55 N13       30.46R WCI -18
LONG PRAIRIE   FAIR       1  -8  66 NW12G23   30.46R WCI -15
LITTLE FALLS   SUNNY      3 -11  51 NW10G16   30.46R WCI -12
LITCHFIELD     SUNNY      7  -6  56 N22       30.46R WCI -14
BUFFALO        SUNNY      6  -5  59 NW17G23   30.46R WCI -12
MAPLE LAKE     SUNNY      7  -4  61 NW15      30.45R WCI -11
$$
MNZ037-044-045-052-053-121800-
   East Central Minnesota

CITY           SKY/WX    TMP DP  RH WIND       PRES   REMARKS
PRINCETON      SUNNY      5  -8  56 NW15      30.43R WCI -13
MORA           SUNNY      5  -9  51 NW8G21    30.43R WCI  -8
CAMBRIDGE      SUNNY      7  -8  51 NW13      30.41R WCI  -9
RUSH CITY      SUNNY      5 -10  51 N14G21    30.41R WCI -13
MOOSE LAKE     SUNNY      3 -13  47 N13G18    30.37R WCI -14
HINCKLEY         N/A      5  -9  51 NW13      30.40R WCI -12
CLOQUET        SUNNY     -2 -17  50 NW16G24   30.35R WCI -23
MCGREGOR       SUNNY      1 -11  55 N20       30.40R WCI -20
$$
MNZ071>073-080-081-089-090-097-098-121800-
   Southwest Minnesota

CITY           SKY/WX    TMP DP  RH WIND       PRES   REMARKS
MONTEVIDEO     SUNNY      7  -4  61 N18G29    30.55R WCI -12
GRANITE FALLS  SUNNY      8  -2  65 NW22      30.54R WCI -13
CANBY          MOSUNNY    9   0  66 NW16G24   30.56R WCI  -9
MARSHALL       SUNNY      6  -1  73 N23       30.52R WCI -15
REDWOOD FALLS  SUNNY      8  -3  61 NW18G28   30.50R WCI -11
OLIVIA         SUNNY     10   0  61 NW16G23   30.48R WCI  -7
PIPESTONE      SUNNY     10  -6  48 N12G21    30.47R WCI  -4
WINDOM         SUNNY      7   1  78 NW23      30.44R HAZE    WCI -14
WORTHINGTON    SUNNY      9  -2  61 N17       30.46R WCI -10
JACKSON        SUNNY     10   0  61 NW21G29   30.44R WCI  -9
TRACY          SUNNY      8   0  68 NW16G28   30.50R HAZE    WCI  -9
SLAYTON        SUNNY      6  -2  69 NW17      30.47R WCI -13
$$
MNZ065>067-074>077-082>085-091>093-121800-
   South Central Minnesota

CITY           SKY/WX    TMP DP  RH WIND       PRES   REMARKS
MANKATO        SUNNY    N/A N/A N/A NW20G26   30.41R
NEW ULM        SUNNY      9  -2  61 NW23G29   30.44R WCI -12
ST JAMES       SUNNY     10   1  67 NW21      30.47R WCI  -9
FAIRMONT       SUNNY      9   0  66 NW20G29   30.43R WCI -11
GLENCOE        SUNNY      9  -3  58 NW20G25   30.44R WCI -10
FARIBAULT      SUNNY     10  -2  56 NW17G23   30.38R WCI  -7
OWATONNA       SUNNY     10  -2  56 NW18      30.37R WCI  -8
WASECA         SUNNY     12   3  67 NW21      30.41R WCI  -6
ALBERT LEA     SUNNY     10   0  61 NW15G23   30.36R WCI  -6
$$
MNZ078>079-086>088-094>096-121800-
   Southeast Minnesota

CITY           SKY/WX    TMP DP  RH WIND       PRES   REMARKS
ROCHESTER      SUNNY      9   0  67 NW28      30.30R HAZE    WCI -13
RED WING       SUNNY     10  -6  48 N15G29    30.37R WCI  -6
STANTON        SUNNY     11  -2  55 NW21      30.38R WCI  -7
DODGE CENTER   SUNNY     10   0  61 NW17G25   30.32R WCI  -7
WINONA         SUNNY     14   3  62 NW16G26   30.34R WCI  -2
AUSTIN         SUNNY     10   1  67 NW21      30.34R WCI  -9
PRESTON        SUNNY     10  -1  62 NW15G21   30.30S WCI  -7
$$
ABBREVIATIONS USED IN REMARKS
   TC - TEMPERATURES IN CELSIUS
  WCI - WIND CHILL INDEX
   HX - HEAT INDEX
  VSB - VISIBILITY
$$



USA.gov is the U.S. government's official web portal to all federal, state and local government web resources and services.